RH
31 38 63 75 55 53 54 44 42 54 93 92 70 54 32 25 19 20 20 20 22 31 33 20 17 14 13 16 15 16 18 22 23 26 29 30 27 27 29 28 28 26 26 27 28 29 32 33 31 31 30 32 32 31 33 35 38 40 39 39 42 45 51 56 61 63 60 59 62 60 54 50 55 65 66 69 73 73 70 73 83 81 85 89 86 91 81 65 76 91 75 80 103 79 73 94 85
33 57 74 64 53 51 45 36 41 70 100 93 74 51 30 25 19 20 20 20 20 25 29 20 18 15 14 20 19 16 19 25 27 26 26 32 36 35 36 39 39 38 37 36 39 43 47 48 46 44 44 43 40 38 37 40 46 48 48 50 55 58 61 63 64 65 63 60 55 52 50 53 64 65 54 51 49 47 52 63 78 76 82 94 94 92 74 71 92 82 65 92 106 73 74 96 99
50 80 70 60 69 63 54 46 44 71 102 91 61 43 31 24 20 20 20 20 19 21 23 21 18 15 16 22 24 19 17 24 29 28 30 37 40 36 37 42 45 47 50 52 57 63 68 67 63 60 56 52 50 48 47 51 59 65 65 66 69 68 65 65 69 65 56 49 46 50 54 67 72 54 44 44 41 44 57 69 70 70 83 96 100 97 94 100 89 60 61 95 102 77 82 99 103
69 90 63 65 73 70 81 69 51 65 97 96 55 39 34 23 22 20 20 20 19 22 22 21 18 17 18 23 27 24 17 21 29 31 38 47 43 34 34 41 45 46 50 57 65 72 78 81 81 76 69 63 60 58 58 62 67 69 65 65 65 63 61 60 65 59 51 48 49 60 66 80 73 50 52 52 46 46 54 71 72 75 92 102 101 95 95 88 62 47 58 90 102 84 90 103 101
81 86 65 79 72 67 87 76 66 69 87 101 66 41 34 23 22 19 20 20 20 21 22 21 18 18 19 23 27 24 19 19 27 31 43 55 50 36 28 36 42 41 44 52 63 72 80 86 89 85 77 71 68 67 64 62 60 57 56 59 59 61 62 61 70 64 59 55 55 71 77 81 73 57 60 57 51 46 49 64 64 65 78 91 90 73 63 54 45 46 55 87 106 94 97 102 94
82 72 58 77 72 66 66 60 73 74 81 102 78 45 32 24 22 19 20 20 21 22 22 21 18 18 19 22 26 24 20 23 28 29 39 49 52 40 25 30 36 34 36 46 60 70 80 86 87 81 75 72 72 71 68 65 61 58 57 60 60 64 66 75 88 74 63 63 59 68 74 77 81 78 72 62 53 48 51 57 61 68 78 84 73 51 44 49 53 54 62 87 102 100 102 101 93
86 74 57 69 75 73 60 58 73 68 81 100 73 44 32 25 22 18 19 20 22 23 22 21 18 17 17 21 24 26 25 30 33 30 35 45 53 42 26 28 31 30 29 39 54 64 74 81 82 78 75 75 74 72 70 69 68 66 65 65 67 74 77 90 99 79 68 71 65 63 69 71 77 85 78 63 51 48 51 59 69 74 81 82 68 55 53 67 70 61 68 82 94 101 103 102 100
95 89 61 68 72 68 58 64 82 78 88 91 60 43 34 26 23 16 16 19 22 23 23 21 18 16 15 20 24 27 31 34 32 32 39 49 55 41 28 28 29 32 29 35 48 59 70 79 82 82 85 86 85 81 76 74 75 76 75 77 84 91 88 90 96 86 76 76 72 66 69 72 71 69 64 59 57 59 63 74 80 66 60 63 64 63 60 73 72 57 62 72 83 94 100 106 105
98 91 59 64 59 60 61 64 92 99 99 89 60 47 36 29 23 15 15 18 22 22 23 22 18 16 14 19 25 29 34 35 30 30 40 53 55 39 30 27 26 30 31 34 44 54 66 78 83 88 95 96 93 89 86 84 84 87 89 94 100 99 85 79 89 94 88 83 81 75 71 70 71 66 60 64 72 81 84 89 90 76 67 62 63 66 64 73 71 59 61 68 76 81 84 90 91
96 83 59 66 60 69 74 71 87 90 98 93 62 45 38 32 22 13 14 16 21 22 24 23 19 17 15 20 26 30 33 32 27 27 37 51 49 36 32 29 23 24 29 36 43 51 59 67 73 83 91 92 93 91 96 96 94 99 101 106 101 90 81 75 85 98 96 88 86 87 86 74 68 69 67 69 77 88 93 93 89 84 84 77 72 70 71 75 75 71 69 72 79 84 80 77 78
98 76 53 55 67 81 74 73 67 54 84 94 61 46 42 33 23 14 13 16 19 20 23 23 20 18 18 23 27 29 31 30 25 24 33 44 42 35 32 31 28 22 28 41 44 45 52 57 61 75 83 86 90 89 96 98 100 105 104 108 99 82 78 78 79 86 85 85 89 87 91 86 74 71 65 65 74 81 84 89 92 90 84 75 72 70 73 74 74 74 72 74 80 91 89 84 90
99 72 57 55 78 90 67 58 44 39 80 97 67 50 44 34 24 15 12 15 17 17 22 24 23 21 19 24 28 30 30 29 25 21 30 40 40 37 32 31 33 26 29 44 44 41 54 62 64 76 83 86 91 94 98 97 101 104 103 105 97 85 83 85 79 73 68 71 83 82 82 80 75 74 66 68 82 85 79 83 93 95 80 69 68 66 70 78 81 80 79 78 76 84 89 92 100
92 72 85 80 84 87 64 43 31 46 85 100 78 52 41 37 26 14 13 13 14 15 19 24 25 23 22 24 28 31 32 30 25 20 26 35 37 34 30 30 33 31 31 38 39 44 61 68 73 86 92 94 98 100 100 99 101 99 103 103 92 90 89 89 88 81 72 67 71 75 74 66 63 68 72 84 96 96 90 87 87 87 79 69 67 65 66 75 78 75 75 76 73 75 84 98 102
85 75 102 82 71 90 85 56 38 60 93 102 89 64 41 36 28 14 14 13 13 14 18 25 26 26 23 24 28 32 33 30 25 20 22 27 29 28 26 28 30 31 31 29 26 38 53 59 76 98 101 98 97 100 102 99 102 100 104 101 89 93 93 88 91 88 81 76 75 74 77 75 70 70 75 87 94 97 98 95 88 85 87 80 70 64 63 69 72 72 77 80 86 89 89 99 101
89 84 101 69 60 96 98 66 47 69 101 92 78 74 46 35 31 15 13 12 12 14 18 23 24 26 24 24 25 29 32 28 24 19 19 21 21 22 24 25 24 26 25 19 20 32 38 38 65 97 98 90 86 88 90 85 92 104 108 100 89 95 98 89 85 82 78 82 85 83 85 93 94 90 86 81 84 94 96 95 94 85 83 82 75 69 70 77 85 90 93 92 98 102 98 100 102
100 92 95 67 58 88 88 61 51 70 101 94 84 83 48 34 33 17 14 10 11 13 16 20 22 25 23 23 21 23 28 25 22 18 16 17 17 18 20 21 20 21 17 15 20 26 31 36 59 84 85 82 72 56 56 57 65 83 93 91 84 87 90 85 77 68 61 70 86 91 89 96 102 98 95 91 87 96 93 91 100 89 74 73 71 73 77 78 87 98 99 98 100 100 99 101 100
105 92 84 68 63 83 79 58 47 54 93 101 97 93 52 38 37 20 14 9 10 12 15 17 19 22 19 20 18 19 23 21 20 17 16 15 15 15 15 17 17 17 14 15 15 20 44 55 61 69 72 75 59 35 32 35 35 41 50 56 57 61 64 65 67 59 47 50 69 85 90 96 105 98 95 99 95 100 99 97 103 86 70 75 73 71 71 69 84 99 98 98 99 98 100 100 98
104 85 74 64 63 81 79 73 53 41 87 100 91 95 59 41 41 25 14 9 11 10 13 15 16 20 16 17 16 16 19 18 18 15 15 13 14 14 12 14 13 13 12 12 11 22 50 60 61 62 63 67 52 30 22 22 27 30 34 35 33 36 39 45 55 55 50 48 52 66 76 85 99 100 97 101 98 97 101 103 97 72 69 85 84 74 68 73 92 101 99 100 100 100 100 99 100
103 73 61 67 69 81 82 93 77 40 68 84 85 95 64 46 42 30 19 9 12 10 11 13 14 17 14 15 14 15 16 16 16 14 14 13 14 14 12 12 10 11 10 10 11 20 43 59 61 50 45 50 40 22 18 25 34 38 40 39 37 36 41 53 60 57 55 55 54 60 73 84 95 100 101 101 99 99 100 98 85 72 82 92 83 74 70 82 101 101 99 100 99 100 100 100 100
102 66 49 73 81 92 91 97 96 59 54 68 91 99 71 61 46 33 28 14 14 13 11 11 11 14 13 15 13 14 15 14 15 14 14 14 14 14 12 11 10 10 9 10 10 16 42 63 56 33 24 25 20 15 19 29 34 34 35 35 37 39 44 51 54 49 46 49 53 63 82 95 100 100 99 99 100 97 88 82 78 77 89 87 72 68 75 91 102 98 98 101 100 100 100 100 100
104 72 46 73 86 99 100 98 102 88 74 68 91 102 83 78 56 38 35 22 19 17 16 14 10 12 12 14 14 14 15 14 14 14 14 15 14 14 13 12 11 11 10 10 9 17 41 56 44 26 16 12 13 14 19 27 29 29 28 27 29 30 34 36 38 38 36 41 47 56 72 86 93 93 95 102 100 79 61 68 77 72 72 71 62 69 89 101 102 100 102 97 87 86 95 101 99
105 81 52 74 94 99 93 94 102 99 91 72 80 99 98 93 68 47 40 29 26 22 21 19 13 12 11 12 13 14 14 15 15 15 14 15 15 15 14 13 11 11 10 10 9 15 29 36 29 19 13 12 13 14 18 23 23 24 23 22 22 21 24 26 29 31 32 36 42 51 62 73 78 74 72 77 70 52 44 53 60 56 54 55 55 68 87 97 100 97 85 69 63 77 92 90 79
102 87 60 74 99 102 88 89 100 102 102 89 85 96 101 98 83 64 50 36 28 27 25 23 18 12 11 12 11 13 14 15 15 15 15 15 16 16 16 15 13 11 10 10 10 12 18 20 17 13 12 13 13 14 16 18 19 21 20 18 17 17 18 19 22 24 25 30 40 51 55 56 54 47 43 42 37 35 37 38 41 46 46 48 54 64 74 80 77 61 45 41 54 72 75 64 62
102 87 66 80 99 101 91 88 94 100 105 102 97 98 98 95 91 77 61 47 32 30 29 24 22 14 12 12 11 13 11 14 15 15 16 16 17 17 17 17 14 12 9 9 10 10 15 16 13 12 12 13 13 15 16 17 19 19 19 18 16 15 15 17 20 21 23 27 34 40 39 35 32 30 29 29 31 31 32 34 37 42 44 46 51 57 57 51 39 28 26 33 45 53 51 53 63
104 89 72 87 102 100 97 95 92 97 101 101 99 100 101 96 96 86 69 59 40 32 32 28 24 17 14 13 11 12 11 12 14 15 16 16 17 17 17 18 16 15 10 8 9 10 15 16 13 11 12 13 14 15 16 17 19 18 19 19 17 16 16 18 21 22 23 24 27 29 28 24 21 20 20 21 24 26 28 30 32 34 37 40 41 40 34 26 21 21 25 30 36 43 48 52 50
99 97 76 80 98 99 97 102 97 96 98 98 100 99 101 101 99 91 77 67 49 36 36 32 29 22 18 17 13 12 11 11 12 14 16 16 17 18 18 18 17 17 13 10 8 9 14 17 13 11 12 13 14 15 16 17 18 19 19 19 18 16 18 21 23 23 22 23 27 27 23 18 14 13 13 15 17 20 22 23 24 26 28 29 27 23 20 19 21 22 24 30 35 40 42 37 27
93 104 77 71 93 94 87 99 100 98 96 93 101 99 100 102 90 87 85 75 56 42 39 37 34 28 23 23 18 13 12 11 11 13 14 16 17 18 18 18 18 18 16 12 9 8 13 16 13 11 11 12 14 15 16 18 18 18 19 21 19 16 20 25 25 24 24 28 29 24 16 12 12 12 11 12 13 16 19 19 20 20 21 20 17 16 18 19 19 20 23 25 27 28 26 21 19
88 107 76 64 89 94 85 97 100 100 99 92 99 99 100 100 83 84 93 84 67 50 44 42 39 34 28 28 24 16 13 11 11 12 13 15 16 17 18 18 19 18 18 16 11 9 10 14 13 11 11 11 14 15 16 18 17 18 20 21 18 17 20 25 27 26 28 31 27 19 13 12 11 11 11 11 12 14 15 16 15 16 16 15 14 16 17 17 17 18 18 18 19 19 19 19 20
78 105 76 58 86 101 93 99 99 98 102 97 100 100 100 100 87 92 100 90 80 63 52 48 41 38 33 31 31 21 15 12 11 11 12 14 15 17 18 18 19 19 19 17 15 11 9 11 12 11 11 11 12 14 16 17 17 18 19 21 19 17 18 23 27 28 30 32 27 20 14 11 12 11 11 12 12 13 14 14 14 14 15 14 15 15 15 16 16 16 17 18 19 19 20 20 20
64 102 82 62 87 104 96 94 92 92 101 100 99 100 100 100 92 99 101 89 86 77 64 57 46 43 39 35 35 27 18 13 12 12 12 13 14 15 17 18 19 19 20 18 17 14 11 10 11 11 10 10 11 13 15 16 17 18 18 20 19 18 18 21 26 29 33 34 33 31 23 13 12 13 12 12 13 13 14 13 13 13 14 14 14 14 15 15 15 16 17 18 19 20 20 20 21
55 98 87 67 82 98 97 92 85 90 100 100 100 100 99 100 95 101 102 87 90 90 76 66 55 49 46 40 40 34 22 16 13 12 11 12 13 14 16 18 18 20 20 20 19 17 14 11 10 11 10 10 11 11 14 15 16 17 18 19 20 20 20 21 25 28 30 31 31 34 32 21 13 13 13 13 13 13 14 14 14 14 14 15 15 15 15 15 16 17 18 19 20 21 22 24 26
53 95 93 73 76 89 98 91 83 93 100 98 100 99 99 101 97 102 105 89 89 98 89 74 65 59 54 46 46 41 28 20 16 13 12 11 13 14 14 17 18 19 21 22 20 18 17 14 11 11 10 11 11 11 12 14 16 17 18 19 19 21 21 23 24 26 27 27 26 27 30 25 17 14 14 14 15 15 15 15 16 16 16 16 17 17 18 19 19 19 21 22 24 26 29 32 34
49 90 100 82 74 85 97 95 93 99 100 98 99 99 99 101 99 101 106 95 86 95 99 86 71 68 65 54 50 49 36 27 21 15 13 12 12 14 14 16 18 19 21 23 22 19 18 16 13 11 11 10 10 11 12 13 15 17 18 19 19 20 22 24 25 27 28 27 27 25 24 24 20 16 14 15 15 16 16 17 18 18 19 20 20 21 21 22 23 24 26 27 29 32 34 36 37
43 82 101 87 74 84 97 99 101 101 98 100 99 100 100 98 101 101 102 100 89 90 101 96 80 71 72 63 53 54 47 36 31 22 16 13 11 13 14 14 16 19 21 23 24 21 18 18 16 13 11 11 10 11 12 13 14 16 18 19 19 20 21 23 24 26 29 29 30 28 25 23 21 19 17 16 16 16 17 17 18 18 19 20 21 22 23 24 25 26 28 28 30 30 31 32 32
43 79 102 92 76 83 99 99 100 101 100 101 99 99 102 99 101 99 98 100 93 92 100 101 91 77 75 70 57 57 56 48 44 33 21 16 12 11 14 13 15 18 20 23 24 23 20 18 17 16 13 12 11 11 11 12 13 15 18 19 20 20 21 22 24 25 26 28 30 31 32 30 27 25 22 20 19 18 17 17 18 18 18 18 19 20 20 21 22 23 24 25 25 26 26 26 26
41 79 104 99 80 83 101 100 98 102 98 100 96 87 91 98 102 99 99 101 90 91 101 102 99 89 81 76 65 60 61 61 61 49 28 20 15 11 13 13 13 17 20 22 24 24 22 20 18 17 16 14 12 11 11 12 13 15 17 19 20 20 21 22 23 25 25 25 27 29 33 36 37 35 31 28 26 23 21 19 18 17 17 17 17 18 19 20 20 21 22 22 23 23 23 23 24
33 77 105 99 82 83 100 101 97 100 96 97 97 82 80 91 101 100 99 101 90 86 99 101 101 100 88 80 73 65 65 68 74 66 40 24 19 13 12 13 13 15 18 21 23 24 24 22 20 18 17 17 14 13 12 11 13 14 15 18 19 20 21 21 22 24 25 25 26 26 29 34 39 42 42 39 36 34 32 29 27 25 23 21 20 20 20 20 21 21 22 23 24 25 26 28 28
28 75 103 93 80 82 98 103 97 100 98 97 99 91 88 92 100 102 98 102 96 86 96 101 100 102 94 88 85 74 71 71 75 76 53 29 24 16 11 13 13 14 16 18 21 24 24 23 22 21 19 18 17 15 13 12 12 13 14 16 18 20 20 21 21 22 24 24 25 26 27 29 32 37 42 43 44 44 42 41 39 37 35 33 32 31 30 29 29 30 30 31 33 34 36 36 37
26 71 101 94 80 77 93 104 97 99 100 98 99 97 98 99 100 102 98 101 96 81 90 100 100 101 93 89 91 83 78 73 74 81 61 34 29 22 13 13 12 13 15 16 19 22 24 25 23 23 21 20 19 18 16 14 12 12 14 15 16 19 20 20 21 21 21 22 23 25 26 27 28 29 32 36 39 42 43 44 43 43 43 42 41 40 39 38 37 37 37 37 37 36 36 35 35
25 66 98 99 82 70 85 104 99 98 101 98 101 99 98 100 99 100 101 98 83 70 84 99 101 102 89 78 84 86 85 80 78 85 69 41 34 28 17 14 13 13 14 14 16 19 22 24 25 25 23 22 21 20 19 17 15 13 13 14 15 16 18 19 20 20 20 20 21 22 24 25 26 27 28 29 31 33 35 36 37 38 38 38 39 38 38 38 37 37 36 35 35 34 33 32 31
22 57 93 103 90 69 75 99 102 99 102 100 100 100 97 99 100 99 101 97 82 76 91 103 103 103 87 70 75 84 87 87 86 91 78 49 38 34 21 14 14 13 13 13 14 17 20 22 24 26 26 25 23 22 21 20 18 16 14 13 14 15 16 18 19 21 20 20 20 20 22 23 24 25 26 27 28 28 29 30 31 32 32 32 32 32 33 33 33 33 33 34 35 35 33 31 30
18 44 85 104 98 79 72 91 103 99 101 102 99 101 99 98 100 100 101 101 95 92 99 102 98 98 89 73 70 80 88 88 88 94 83 55 42 40 25 15 15 13 13 14 13 15 17 20 22 25 26 25 25 25 24 22 21 19 17 15 14 15 15 16 17 19 20 20 20 20 20 21 22 23 24 24 25 25 26 27 28 29 30 30 31 31 32 32 33 34 35 37 39 39 37 36 37
16 29 70 101 104 92 77 83 100 102 99 101 100 101 101 98 99 101 101 101 100 100 102 97 84 79 82 77 68 75 89 87 84 92 87 61 47 45 29 16 16 15 14 14 14 14 14 17 20 23 25 25 26 27 26 25 24 22 21 19 17 16 15 16 16 17 19 19 19 20 20 20 20 21 23 23 24 25 25 25 25 26 26 27 27 28 29 30 31 32 33 35 37 38 38 38 39
17 17 49 92 106 99 83 74 87 101 100 99 101 100 100 99 99 100 99 99 100 99 101 101 88 71 70 80 73 72 90 90 84 96 93 67 52 48 35 20 16 16 15 15 15 14 13 13 17 20 23 24 25 27 27 27 26 25 23 22 20 19 17 16 16 17 17 18 18 18 19 20 20 20 21 22 24 25 25 25 25 25 26 26 26 26 26 27 27 27 28 29 29 30 31 32 33
17 13 30 74 101 100 90 74 72 91 102 100 100 100 100 101 100 100 98 98 100 99 100 103 100 81 67 79 81 76 93 96 90 102 98 72 58 54 40 24 18 17 16 17 17 16 14 12 14 16 20 23 24 25 27 28 28 27 26 25 23 22 21 19 17 17 17 17 18 18 18 19 20 20 20 21 23 24 24 25 25 26 26 26 27 27 27 27 27 28 28 28 29 29 29 29 30
14 14 18 52 93 102 98 90 71 78 99 102 99 99 100 100 99 100 100 99 99 99 101 101 102 93 76 81 88 85 97 103 98 105 99 78 64 59 47 28 20 20 17 18 19 19 17 14 13 14 16 20 23 24 27 28 28 29 29 28 26 24 23 22 20 19 18 17 17 17 18 18 19 20 20 20 22 23 24 24 25 26 26 27 27 27 27 28 28 29 29 30 30 31 31 31 32
10 15 13 34 84 102 100 103 84 73 91 100 101 100 96 95 95 100 101 100 99 98 100 100 101 99 84 80 89 88 90 97 99 100 95 81 69 63 54 36 25 23 19 18 21 21 21 17 14 14 15 18 21 23 26 28 29 29 30 30 29 27 26 25 24 22 21 20 18 18 18 18 18 18 19 20 21 22 23 24 24 25 26 27 28 28 29 29 29 29 29 30 30 31 31 31 31
8 15 13 23 75 104 99 104 97 79 82 92 101 102 96 96 98 102 102 99 99 99 100 102 100 102 95 83 83 79 76 86 94 91 81 74 70 67 61 48 37 30 23 19 22 24 24 22 18 15 15 16 19 22 25 28 30 30 31 31 31 30 29 28 28 26 24 22 21 20 19 18 18 18 19 20 20 21 22 23 24 24 26 27 28 29 30 30 31 31 31 31 31 31 31 31 31
8 13 14 15 61 103 101 101 106 94 85 89 99 101 99 100 100 101 101 99 100 100 101 102 98 101 100 86 75 71 71 84 94 88 78 72 70 67 64 59 52 42 31 22 23 27 28 27 24 19 16 16 17 21 24 27 31 31 31 32 32 32 32 32 32 31 29 27 24 23 22 21 20 20 19 20 20 21 21 22 23 24 25 26 27 28 29 30 31 32 33 33 34 34 34 35 34
9 11 15 11 39 90 106 102 105 104 98 91 91 99 99 99 100 99 100 100 101 101 101 100 99 99 95 82 71 69 74 86 94 91 88 84 76 70 68 66 62 56 47 31 25 31 33 31 30 26 21 19 18 20 22 25 30 33 33 32 33 33 33 33 33 34 33 32 30 28 26 24 23 22 21 21 21 21 22 23 23 24 24 25 26 27 28 29 30 31 32 33 33 34 35 36 37
12 9 14 12 20 62 99 107 102 101 104 91 80 94 102 98 99 98 99 101 99 101 101 98 101 98 89 83 79 77 80 87 90 86 85 88 86 82 80 77 71 66 61 46 32 33 37 37 37 35 30 26 22 21 23 25 27 31 35 35 34 34 36 35 34 35 35 35 34 32 30 29 27 25 24 23 23 22 23 24 24 24 24 24 24 25 26 27 28 29 29 30 31 31 32 33 35
13 10 12 14 12 29 67 100 106 99 101 89 72 88 105 99 96 96 98 102 99 100 101 99 101 97 88 90 92 88 90 91 85 76 76 84 90 92 92 92 88 80 73 64 47 38 41 43 43 42 40 38 35 30 28 31 32 31 33 36 36 37 40 41 39 38 39 39 37 35 33 32 31 29 28 27 26 24 24 24 25 26 26 26 24 24 24 24 26 26 26 27 28 28 29 30 30
12 12 10 13 14 15 29 65 96 101 102 90 68 79 103 102 95 94 97 102 100 99 103 102 102 99 95 98 99 96 102 103 87 71 76 90 95 95 95 98 100 95 87 81 67 50 44 47 49 48 47 47 48 46 43 43 43 41 39 40 41 42 45 47 46 44 45 45 44 41 37 36 34 33 31 30 28 27 26 25 25 25 26 27 26 25 25 24 23 24 24 24 25 26 27 28 29
9 13 12 11 13 16 15 27 60 89 103 97 73 71 95 105 97 93 94 100 102 99 102 104 99 98 99 100 101 99 100 103 87 69 78 97 101 100 96 95 99 101 96 90 81 66 53 51 55 55 53 55 57 59 62 63 61 60 59 54 49 48 50 50 52 53 53 53 51 48 45 43 40 37 34 33 32 30 29 27 26 26 25 25 26 26 26 26 24 23 23 23 23 24 25 26 28
9 11 13 12 10 14 17 14 25 53 81 101 91 69 83 104 101 95 92 94 102 101 99 100 98 99 100 99 102 96 90 96 82 61 73 98 103 101 99 95 93 94 96 94 88 79 67 63 66 65 61 64 67 67 71 78 82 83 83 77 65 60 58 55 57 60 61 61 59 56 53 51 51 48 43 40 38 36 34 32 28 26 26 25 24 26 26 27 27 26 24 23 22 23 23 24 26
9 10 11 14 11 9 16 16 15 24 45 84 101 80 79 101 104 100 96 92 99 104 100 98 99 102 101 101 103 94 86 93 82 55 61 90 102 99 100 100 94 92 98 97 90 84 77 73 78 78 71 74 81 79 75 80 88 94 97 95 87 81 72 62 62 67 70 69 68 66 62 59 60 61 59 55 51 44 39 37 37 32 29 27 26 25 26 26 27 27 26 24 22 21 22 23 24
8 10 9 12 14 10 12 14 15 17 21 50 88 91 87 100 103 102 101 96 99 104 103 101 99 101 101 99 101 97 87 87 83 59 49 75 100 102 98 98 97 98 102 100 94 89 80 73 76 80 77 77 83 86 84 84 89 95 99 100 99 97 91 77 67 71 79 79 79 79 75 71 71 71 70 69 68 63 52 42 42 42 38 33 29 27 26 26 26 26 26 24 22 21 20 21 23
7 9 10 11 14 13 12 12 13 18 14 22 57 82 85 93 103 104 102 99 101 104 106 104 99 99 102 96 88 87 79 72 74 62 46 65 97 104 99 97 97 99 100 99 99 93 82 75 76 83 87 83 80 85 89 89 93 98 99 100 101 101 102 95 80 78 84 87 89 92 90 85 83 83 83 81 80 81 74 57 45 45 48 45 38 32 28 26 26 25 24 22 20 19 19 19 20
Wind_Speed
4 5 5 5 6 7 9 10 12 14 13 14 16 18 17 19 22 20 19 18 16 14 14 16 17 19 19 19 21 22 24 25 23 23 23 23 23 22 21 20 20 20 19 18 17 16 14 11 10 8 7 7 6 4 3 2 3 3 2 2 2 1 2 2 5 7 8 8 9 11 11 9 5 2 0 4 7 8 8 8 8 9 8 8 6 4 2 4 6 7 7 7 11 12 13 15 13
5 6 7 7 7 6 7 9 12 14 11 12 14 15 16 20 22 19 19 18 16 15 14 15 16 19 19 18 20 21 23 24 23 22 22 23 23 22 21 22 22 22 22 21 20 19 18 16 15 14 13 11 9 7 6 5 4 4 4 3 3 2 2 4 5 7 7 8 10 9 7 3 2 5 9 12 13 11 10 10 10 10 9 8 6 4 5 7 9 9 8 8 12 13 14 16 14
7 9 9 8 7 6 6 9 11 11 8 10 14 14 17 21 20 18 19 17 16 15 14 16 16 18 19 18 19 20 22 22 21 21 21 22 22 20 20 21 22 22 22 22 20 20 18 17 16 16 15 14 13 10 9 8 7 7 6 5 4 3 4 5 6 7 8 8 8 6 3 4 7 10 12 13 13 13 12 11 11 11 11 9 6 5 6 8 9 10 9 10 13 13 13 14 13
10 10 9 9 8 6 8 9 10 11 7 9 15 15 18 20 17 18 19 17 15 15 15 16 17 17 18 19 19 18 20 22 19 19 21 21 20 19 18 19 20 21 21 21 20 19 18 17 16 15 15 14 14 13 12 10 9 8 7 6 5 5 6 7 8 9 11 11 9 7 7 8 10 12 13 13 14 13 13 13 12 12 12 10 6 5 6 8 10 11 10 12 15 14 12 11 11
11 10 9 9 7 5 6 7 7 9 8 8 14 15 17 17 16 19 19 17 15 15 16 16 17 17 17 19 19 18 20 22 19 18 20 20 18 17 17 17 18 19 19 19 19 18 18 16 15 15 14 14 14 14 13 11 11 10 9 9 8 8 8 8 8 11 14 14 12 10 10 10 11 12 14 14 14 14 14 14 13 13 12 10 8 7 8 10 10 10 11 13 15 14 12 10 10
12 11 10 9 6 5 5 6 7 8 6 6 10 12 14 15 17 19 18 17 15 15 15 16 17 17 17 19 19 18 19 22 20 16 18 19 17 17 17 16 17 18 18 19 19 19 18 17 16 15 15 15 14 14 13 12 11 11 10 10 9 9 9 9 8 11 15 15 14 13 13 12 12 13 13 14 14 15 15 15 15 15 13 11 10 10 10 11 11 11 11 12 12 12 11 9 8
12 10 10 8 6 5 4 6 8 8 5 3 6 11 13 15 19 20 18 17 15 15 15 15 17 17 18 19 18 17 18 21 20 16 17 19 16 16 17 16 17 17 19 19 19 18 18 17 17 17 17 16 15 14 13 12 11 10 9 9 9 10 9 10 8 10 15 16 14 14 14 14 14 14 13 13 13 15 15 16 16 15 13 11 11 10 11 12 11 10 11 11 10 9 9 8 8
13 9 9 7 7 7 5 6 7 5 2 3 7 12 14 16 19 20 19 17 15 15 15 15 16 17 18 19 18 17 18 19 18 17 18 20 16 15 17 16 17 17 19 19 19 19 18 18 17 17 17 16 16 15 14 13 11 10 9 9 10 10 9 9 7 8 13 16 15 14 15 15 14 13 12 12 13 14 15 16 15 14 12 11 11 10 11 11 10 9 10 10 9 8 7 7 7
14 10 10 9 8 7 6 7 6 4 2 5 9 13 15 16 19 21 20 17 15 16 15 14 15 17 18 19 19 17 18 17 17 17 18 20 17 15 16 17 17 17 18 19 20 19 19 17 16 16 15 15 15 15 15 14 13 12 11 10 10 9 8 8 7 7 11 14 15 15 15 16 15 13 13 13 13 13 13 13 13 11 10 10 10 9 10 10 9 8 8 8 8 7 6 6 5
14 12 11 9 7 6 6 6 4 3 3 4 9 12 14 16 19 22 21 17 15 16 15 14 14 16 18 20 19 18 17 15 15 16 18 19 16 15 16 17 18 18 19 19 20 19 18 16 15 14 14 15 15 16 16 15 15 14 13 12 11 9 8 9 8 7 9 12 14 15 15 16 15 15 14 13 14 14 13 11 11 10 9 9 7 7 8 8 7 6 7 7 6 5 5 6 4
14 12 10 8 8 6 6 5 5 3 4 2 9 12 13 16 20 22 21 18 16 16 15 14 13 14 18 20 19 18 17 15 15 17 18 18 16 15 16 17 18 19 19 20 20 19 18 16 15 14 15 15 15 16 16 15 15 15 14 12 11 9 9 9 9 8 8 11 12 13 14 16 16 16 14 13 14 14 13 12 10 9 8 7 6 6 7 7 6 5 5 5 4 4 4 4 4
14 13 10 9 10 7 6 5 5 3 2 2 9 11 13 17 19 21 21 18 16 17 16 14 13 14 18 20 19 18 17 15 15 17 18 17 15 15 16 16 17 19 20 20 20 19 17 17 17 16 16 16 16 16 16 14 14 15 14 10 10 9 9 9 10 10 10 11 11 12 13 15 17 17 14 13 12 10 10 11 10 8 6 6 5 4 4 4 3 3 3 2 2 2 3 4 5
16 14 11 11 11 7 5 4 5 2 1 4 8 11 14 16 18 20 21 19 17 17 16 14 14 14 17 18 18 18 17 14 15 18 18 17 15 15 16 16 17 18 19 20 19 19 18 18 18 18 18 18 17 16 14 13 14 14 12 9 9 8 9 9 9 10 11 11 11 12 13 14 17 16 15 12 10 8 8 8 7 7 6 5 4 2 2 2 2 2 1 0 1 1 3 4 4
17 15 12 15 14 9 5 5 5 1 2 4 4 9 13 15 16 20 21 20 18 18 17 15 14 13 15 17 18 18 16 14 15 18 18 17 16 15 16 17 17 18 19 19 19 19 19 18 18 18 19 20 18 16 13 13 14 13 10 8 8 8 9 9 9 9 10 11 11 12 13 15 15 15 14 12 11 10 6 6 5 5 6 4 2 2 2 2 2 2 2 1 2 2 3 4 3
17 16 14 15 16 12 10 9 7 2 2 6 2 3 11 13 15 19 21 21 20 19 17 15 14 13 14 16 17 18 16 15 16 19 19 18 17 17 17 17 18 19 19 19 19 19 19 18 17 18 19 20 19 17 15 16 14 11 8 7 8 8 8 8 8 8 8 9 10 12 13 14 13 12 13 12 11 12 9 6 2 2 3 1 3 4 4 3 2 2 1 0 1 3 4 4 3
19 18 17 15 15 13 13 11 8 4 2 7 4 2 10 12 14 19 21 22 21 19 17 15 14 13 14 15 17 19 17 16 17 19 21 20 19 18 18 18 19 19 19 20 20 20 19 19 18 18 19 20 21 20 19 18 14 11 8 8 8 8 9 9 8 7 7 8 9 11 13 13 12 9 10 11 11 10 10 9 5 2 3 4 5 7 5 2 1 2 2 3 3 3 4 4 5
20 20 20 17 15 13 14 11 10 10 5 7 4 2 9 12 15 18 21 23 22 20 18 16 16 14 14 15 17 20 19 17 18 20 22 22 21 20 19 19 19 20 20 20 21 21 21 20 20 19 20 21 22 23 21 18 16 13 11 10 10 10 10 9 8 7 7 7 7 9 11 12 11 8 7 9 10 10 8 7 6 5 5 5 7 7 6 4 3 4 4 5 5 5 6 7 7
22 22 21 16 16 14 13 11 11 11 7 5 5 2 9 12 15 17 20 23 22 22 20 18 17 15 15 16 17 20 19 19 20 21 23 23 22 21 20 20 20 20 21 21 22 22 22 22 22 21 21 22 22 22 21 20 18 17 16 14 13 12 11 10 9 8 7 7 7 7 8 9 10 9 8 8 9 9 8 6 6 5 4 4 6 6 6 5 5 6 6 7 7 7 9 10 9
23 23 20 16 17 15 12 10 12 11 7 6 6 5 11 11 14 15 17 22 22 23 22 20 18 16 16 16 17 19 20 20 20 22 24 25 24 22 21 21 21 21 21 21 22 22 22 22 22 23 23 23 22 22 22 22 21 20 20 18 16 14 12 11 10 10 8 7 6 6 7 8 10 9 9 9 9 8 8 8 6 6 7 6 7 8 7 7 8 8 9 9 9 10 10 9 8
23 24 22 18 19 15 12 10 11 13 9 7 6 6 11 10 12 13 15 18 21 22 23 22 20 19 17 16 16 18 19 20 20 22 24 25 25 24 23 22 22 21 21 21 21 21 21 22 23 24 24 24 23 23 24 23 23 22 22 20 18 16 14 12 12 11 9 7 6 5 5 7 8 9 8 9 9 9 10 9 7 7 9 9 9 10 9 9 10 10 10 11 11 11 9 8 7
24 25 24 21 19 15 14 13 12 13 11 9 7 6 8 10 10 11 14 15 17 20 22 22 22 21 20 18 16 17 18 19 20 21 23 24 25 25 24 23 22 21 21 20 20 21 22 22 23 24 24 24 24 24 25 24 24 24 24 22 20 18 16 15 13 12 11 9 6 4 4 5 7 8 10 10 9 10 12 11 10 10 10 10 10 11 10 10 11 11 11 10 10 10 9 8 8
26 28 26 24 20 15 18 18 14 12 10 10 9 6 3 6 8 10 13 13 15 16 19 20 21 22 22 20 18 17 17 18 18 20 21 23 25 26 25 24 22 21 21 20 20 21 22 23 24 25 25 24 25 25 26 25 25 25 25 24 22 20 18 17 15 14 12 10 8 6 5 5 6 8 11 12 11 12 13 14 13 11 10 10 10 11 10 10 10 10 10 9 9 10 10 10 9
29 29 28 26 21 17 19 19 15 12 10 11 10 10 6 2 3 8 11 11 12 13 16 18 18 20 22 22 20 18 17 17 17 18 20 22 24 25 26 25 23 22 21 20 20 22 23 24 25 25 25 25 25 26 26 27 26 26 26 25 23 21 20 19 17 15 14 11 10 9 8 9 10 11 12 13 13 13 14 14 13 12 11 10 10 10 9 9 8 8 9 9 11 12 12 12 13
32 30 30 28 23 19 18 17 14 12 11 12 13 15 12 7 5 4 7 10 11 11 13 15 16 18 21 22 21 20 19 18 17 17 18 20 22 24 26 26 24 22 21 20 20 21 23 24 25 26 26 26 26 27 27 27 27 27 27 26 25 23 22 20 19 17 15 14 13 13 14 15 15 14 13 13 13 13 14 14 13 12 11 10 9 9 9 8 8 9 11 12 13 14 15 16 16
34 31 33 31 25 20 17 15 14 13 12 13 15 18 16 12 8 6 4 8 10 10 11 12 13 15 18 21 21 21 20 19 18 17 18 19 21 23 25 26 25 23 22 21 20 21 22 24 25 26 26 26 26 27 28 28 28 28 28 27 26 25 24 23 21 19 18 18 18 18 18 18 16 14 13 12 12 12 12 13 12 11 11 10 9 9 10 10 11 13 14 16 16 17 17 17 16
37 33 35 33 27 23 20 15 14 13 11 11 15 18 16 14 11 8 7 6 9 9 9 10 10 12 15 18 20 20 20 21 20 18 17 18 19 21 23 25 25 24 23 22 21 21 21 23 25 25 26 27 26 27 29 29 29 29 29 29 28 27 26 25 24 22 22 22 22 21 20 18 17 15 14 13 13 13 13 13 12 12 12 11 11 12 13 13 14 16 18 19 19 19 18 17 17
39 35 37 36 29 27 23 15 13 13 13 12 14 16 15 15 13 10 9 7 8 8 8 9 8 9 12 15 18 20 20 21 21 19 18 18 18 19 21 24 25 25 23 22 21 20 20 22 23 25 26 27 27 28 29 30 30 30 30 30 30 29 28 27 26 24 24 24 23 22 20 20 19 18 18 18 18 18 16 15 15 15 14 14 15 17 18 17 18 20 21 22 22 21 20 19 19
41 37 38 38 31 28 24 16 14 15 15 14 15 17 16 16 14 12 11 8 7 8 7 8 7 7 9 13 16 18 19 20 20 20 19 18 17 18 20 22 25 25 23 22 22 21 20 21 22 24 26 27 27 28 29 30 31 31 31 32 31 31 30 29 27 25 24 24 23 22 22 22 22 23 24 25 24 23 21 21 20 20 19 18 19 22 21 20 21 23 24 24 24 23 22 21 22
43 39 39 39 32 28 26 20 18 18 17 17 17 18 18 17 16 14 11 9 7 8 7 6 7 6 7 10 13 16 17 19 20 20 19 19 18 18 19 21 23 25 24 23 22 21 20 21 22 23 25 27 27 28 29 30 32 32 32 33 33 33 32 31 29 26 25 24 23 23 24 25 26 26 28 30 29 28 27 25 25 25 24 23 24 25 24 24 25 27 27 27 26 26 25 25 25
45 40 39 39 35 30 27 23 21 20 18 19 19 19 19 18 17 17 12 9 9 8 7 5 5 5 5 8 11 13 15 17 18 19 19 19 18 18 18 20 22 24 24 24 23 21 20 20 21 22 24 26 27 28 30 31 32 33 33 34 34 34 34 33 31 27 24 22 22 22 23 25 27 29 31 32 33 32 31 29 29 29 28 28 28 28 27 28 30 30 31 30 29 28 27 26 26
47 43 41 41 39 32 26 24 24 22 20 20 19 19 19 19 20 19 14 11 11 8 7 6 4 3 3 6 8 11 13 15 16 17 18 18 18 18 18 19 20 22 24 24 23 22 21 20 20 21 22 25 27 29 30 31 33 34 34 34 35 35 36 36 34 30 26 23 22 22 23 24 26 29 31 32 34 34 33 32 32 31 31 30 30 30 30 31 32 32 32 31 30 29 27 26 24
49 46 43 42 41 35 27 25 27 25 23 22 20 19 20 21 22 21 16 13 11 8 8 7 5 3 2 3 6 8 11 13 15 16 17 17 18 18 18 19 19 21 23 23 23 22 21 20 20 20 21 24 26 28 30 32 33 34 34 34 35 36 37 38 37 35 31 27 25 24 23 23 25 27 29 31 32 33 33 33 32 31 31 31 31 31 31 31 31 30 30 30 29 27 25 24 22
52 49 45 43 44 39 30 28 29 27 25 23 21 21 21 22 23 21 17 14 11 9 9 9 6 4 2 1 4 6 8 11 13 15 16 16 16 17 18 18 19 20 21 22 23 23 22 21 20 20 21 23 25 27 30 32 33 34 34 34 35 36 37 38 38 38 37 34 32 29 26 24 23 25 27 29 31 30 31 30 30 30 29 29 30 30 29 29 29 28 27 26 26 25 23 22 20
53 51 47 45 46 42 33 29 31 30 27 23 23 23 21 21 23 21 19 17 12 10 11 10 8 6 3 1 2 4 6 9 12 13 14 14 15 16 17 18 18 19 20 21 22 23 22 22 21 21 21 22 24 26 29 31 32 33 34 34 34 35 36 37 38 38 38 38 37 35 33 29 26 24 24 26 28 28 28 28 28 27 27 27 27 27 27 27 26 26 25 23 22 21 20 19 18
54 52 48 46 48 45 37 30 31 33 29 25 26 26 23 22 23 23 21 18 13 11 12 12 10 7 5 3 1 2 4 7 10 11 13 13 13 14 15 17 18 18 19 20 21 22 22 22 22 22 22 22 23 25 27 29 31 33 33 34 34 34 35 35 36 37 37 37 37 37 37 36 33 30 27 26 26 26 25 26 25 25 24 24 25 25 24 24 23 23 22 21 19 18 17 16 15
56 53 50 49 50 48 42 33 31 33 31 28 29 29 27 25 24 24 23 19 14 13 13 12 11 9 6 4 2 2 3 5 7 9 11 12 12 13 14 15 17 18 18 19 20 22 22 23 23 23 22 22 22 24 26 28 30 32 33 33 33 33 34 34 35 35 36 36 36 36 37 38 38 37 35 33 31 29 27 26 24 23 22 22 22 22 22 22 21 21 20 19 18 17 16 15 14
60 57 53 53 54 51 46 38 32 33 33 32 31 31 30 27 25 25 23 20 16 14 13 13 11 9 7 6 4 3 3 4 5 7 9 11 11 11 12 13 16 17 17 18 19 21 22 23 23 23 23 23 23 23 25 26 28 30 32 32 33 33 33 32 33 33 34 35 35 35 35 35 36 37 37 37 36 36 34 32 30 28 26 25 24 23 22 21 21 20 19 18 18 17 16 15 15
64 60 56 55 55 53 49 42 35 33 35 34 33 33 32 28 26 26 25 22 19 16 15 15 12 9 8 7 6 5 4 5 4 5 7 9 10 10 11 12 13 15 16 17 18 20 21 22 23 24 23 23 23 24 24 25 27 29 30 32 32 32 32 32 31 31 32 33 33 34 34 34 35 35 35 35 36 36 36 35 35 34 33 31 30 28 27 26 25 24 23 23 22 21 21 20 20
67 64 59 57 57 55 52 46 39 36 36 34 32 33 31 29 29 29 27 25 23 19 17 17 15 11 9 8 7 7 6 6 3 4 5 7 9 9 9 10 11 14 15 16 17 18 20 21 22 23 23 24 24 24 24 25 26 27 29 30 31 32 32 32 31 30 30 30 31 32 32 33 34 34 35 35 34 34 34 34 33 33 33 32 32 31 30 29 29 28 27 26 25 24 23 22 21
69 67 63 60 59 58 55 50 44 38 37 35 33 33 32 32 31 30 28 25 24 21 18 18 17 14 11 9 8 8 7 6 4 3 3 5 7 8 8 9 10 12 14 16 16 17 18 20 21 22 23 24 24 24 25 25 26 26 27 29 30 31 32 31 31 31 30 29 29 30 30 31 32 33 34 34 34 33 33 33 32 32 31 31 30 30 29 28 27 26 26 25 24 23 23 21 20
72 71 67 63 61 60 58 55 49 41 39 37 34 34 33 33 33 30 28 26 23 21 21 20 19 17 14 11 10 9 8 7 5 4 2 2 5 6 7 7 8 10 13 15 15 15 16 18 20 21 22 23 24 24 25 25 26 26 26 27 29 30 31 31 31 31 30 29 29 29 28 29 30 30 31 31 32 32 31 31 31 31 31 31 30 29 28 27 26 26 25 25 24 24 23 22 21
74 74 71 67 64 62 61 60 54 46 42 39 37 36 34 33 34 32 30 27 25 23 24 25 23 20 17 14 12 10 9 8 6 5 3 1 3 5 5 5 6 8 11 13 14 14 15 16 18 19 20 22 23 24 24 25 26 26 26 26 27 29 30 31 31 31 30 30 29 28 28 28 29 29 28 29 29 29 29 29 29 29 29 30 29 29 28 27 26 26 26 25 25 24 24 23 22
75 77 75 70 67 65 65 65 60 51 45 41 38 39 36 33 33 34 31 28 27 26 27 28 27 23 20 16 13 11 10 9 7 5 4 2 1 4 4 3 4 6 8 11 13 13 13 15 16 18 19 20 22 23 24 25 25 26 26 26 26 27 28 29 31 31 31 30 30 29 28 28 28 28 28 28 27 27 27 27 27 27 27 27 27 27 26 26 25 25 25 25 24 23 22 21 20
77 79 78 74 71 69 67 67 63 56 48 41 40 42 40 36 35 34 33 29 28 28 28 28 27 25 22 19 15 13 11 10 8 6 5 3 1 3 3 2 3 4 6 9 11 11 12 13 15 16 17 18 20 21 23 24 25 25 26 26 26 26 26 27 29 30 30 30 30 30 29 29 29 29 28 28 27 26 25 25 25 24 24 24 24 24 24 24 23 23 23 22 22 21 20 19 18
79 80 80 78 74 70 68 68 66 61 51 42 42 44 42 40 37 34 34 33 29 30 30 28 26 27 24 21 18 15 13 11 9 8 7 6 3 2 3 1 1 3 5 6 8 9 10 11 13 15 16 17 18 20 21 23 24 25 25 26 27 26 26 26 27 28 29 30 30 30 30 30 30 30 29 28 27 26 26 25 24 24 23 23 23 22 22 22 21 21 21 20 20 19 18 17 17
79 80 82 81 76 72 70 69 68 66 58 46 43 45 45 43 39 36 36 35 32 31 31 28 26 26 25 23 20 18 16 14 11 10 10 8 6 3 4 3 1 2 4 5 5 7 8 9 11 13 15 16 17 18 19 21 22 23 24 25 26 27 26 26 27 27 27 28 29 29 30 31 31 31 31 30 29 28 27 26 25 24 24 23 23 22 22 21 20 20 19 19 18 18 17 16 15
79 80 82 82 78 74 72 71 70 70 66 55 46 45 46 45 42 40 40 38 36 33 30 29 27 27 27 26 25 21 19 17 14 13 13 11 9 6 5 5 3 3 3 4 4 4 6 7 9 11 13 14 15 16 17 18 20 21 22 23 25 26 26 26 27 26 26 26 27 28 29 30 31 31 32 31 30 30 29 29 28 27 26 25 24 23 22 22 21 20 19 18 18 17 16 15 14
78 79 81 83 81 76 73 72 71 70 70 64 54 47 46 46 45 44 44 42 39 34 29 30 30 29 29 29 28 24 21 19 17 16 15 13 11 9 8 8 7 5 5 4 3 2 4 5 7 8 10 12 13 14 14 15 16 18 19 21 22 24 25 26 26 26 26 26 26 27 28 29 30 31 32 31 31 31 31 30 29 29 28 27 26 25 24 23 22 21 20 19 18 17 16 15 14
78 78 80 83 82 78 75 73 72 70 69 67 62 53 48 49 49 48 47 45 39 33 31 32 32 32 31 31 29 25 22 21 19 17 16 14 12 10 9 10 9 8 6 5 4 2 3 4 5 6 8 9 10 11 12 13 14 15 16 18 20 21 22 23 24 24 25 25 26 26 27 28 28 29 30 31 31 30 30 30 30 29 29 28 27 26 25 24 23 22 21 20 18 17 16 15 14
78 78 80 83 84 81 78 76 75 73 70 68 66 59 52 50 52 50 49 46 40 35 34 33 32 32 33 31 29 26 24 24 22 19 17 16 14 12 10 11 11 9 7 6 5 2 2 3 5 5 5 6 7 9 10 11 11 12 13 15 16 18 19 20 21 22 23 24 25 26 26 27 27 28 28 29 29 29 29 30 29 29 29 28 27 27 26 25 24 23 22 20 19 18 17 16 15
80 81 82 84 85 86 84 83 80 77 74 69 67 65 57 53 54 54 51 49 43 39 38 35 33 34 34 32 29 28 27 27 26 23 20 19 18 15 13 11 10 8 7 7 6 4 2 1 3 3 3 4 4 6 8 9 9 9 10 11 13 15 16 17 18 19 20 22 23 24 25 26 26 27 27 27 27 28 28 28 28 28 28 28 28 27 26 25 25 24 23 21 20 19 18 17 16
83 82 83 84 86 89 90 89 84 80 76 71 68 69 64 56 55 55 53 52 47 42 41 38 36 36 36 33 31 30 30 30 29 26 24 22 21 19 15 12 10 9 8 8 7 7 6 3 0 1 1 1 2 3 5 6 7 7 8 8 9 11 14 15 16 17 18 19 20 21 22 23 24 25 25 26 26 26 26 26 27 27 27 28 28 27 27 26 26 25 24 23 22 21 20 19 18
84 82 82 85 89 92 92 91 86 81 78 73 68 71 69 59 56 56 55 54 51 46 45 43 39 38 37 35 33 32 33 33 31 29 26 25 23 21 18 15 13 11 11 11 11 10 10 8 4 2 1 1 1 2 3 4 5 5 5 6 7 9 11 13 14 15 16 17 18 19 19 20 21 22 23 24 24 25 25 25 25 26 26 26 27 27 27 27 26 26 25 24 23 22 22 21 20
84 83 84 87 91 92 92 91 89 84 81 76 71 73 72 62 57 58 58 57 54 50 48 45 41 39 37 35 34 35 36 35 33 32 29 27 25 23 21 18 16 15 14 14 14 13 12 11 8 5 3 3 2 2 3 3 4 4 4 4 5 7 9 11 13 13 14 15 16 17 17 18 19 20 21 22 23 24 25 25 25 25 26 25 26 26 27 27 27 26 26 25 25 24 24 23 23
85 86 87 88 90 91 91 90 90 87 84 81 76 75 73 66 60 61 62 60 56 52 49 43 41 40 35 33 37 39 39 38 36 34 32 29 27 25 23 21 19 18 16 16 16 15 14 13 11 9 7 6 5 4 4 4 4 4 4 4 3 5 8 10 11 12 12 12 13 15 16 16 17 18 19 20 21 22 23 25 25 25 26 25 25 25 25 26 26 26 26 26 26 25 25 25 24
87 88 88 87 87 90 92 91 91 91 89 86 82 78 76 71 65 63 63 62 58 54 49 42 42 43 38 35 39 41 41 41 39 36 34 31 29 28 26 24 22 20 19 18 17 17 16 15 14 13 11 10 10 9 8 7 5 5 5 5 4 4 5 7 9 10 11 11 11 12 13 14 16 17 18 19 20 22 23 24 25 25 26 26 25 25 25 24 25 25 25 25 25 25 25 25 25
89 88 87 86 86 88 91 92 91 91 91 90 86 82 80 78 73 67 64 63 60 57 52 46 45 47 45 43 42 42 43 43 41 38 35 33 32 31 29 27 25 24 23 21 20 19 18 17 16 15 14 14 13 13 12 11 8 6 5 6 7 7 5 4 6 7 8 8 9 10 12 13 14 15 17 18 19 21 22 22 23 24 24 25 25 24 24 23 23 23 23 24 24 24 25 25 25
91 90 88 87 87 87 89 90 91 90 91 91 89 86 85 83 79 73 67 64 63 61 58 54 51 49 49 50 48 45 44 44 42 40 37 34 33 32 31 29 28 27 26 25 22 20 19 19 18 16 15 15 15 15 14 13 12 9 8 8 10 11 10 7 3 4 6 7 7 9 11 12 13 14 15 16 17 18 20 21 21 22 22 22 23 23 23 22 22 22 22 22 22 23 23 24 24
Wind_Direction
136 124 119 101 91 86 73 57 46 46 36 13 7 9 10 16 14 9 16 20 23 25 26 35 44 54 54 57 66 73 75 77 77 79 80 78 74 72 74 77 81 83 86 86 87 90 94 98 98 100 97 91 87 79 66 37 8 348 344 355 360 357 341 318 311 313 316 317 313 306 304 301 295 294 47 113 121 128 130 136 145 143 145 152 156 151 141 150 146 145 144 127 125 124 118 116 117
137 128 124 98 81 79 72 55 43 45 34 10 8 13 16 20 15 11 17 20 26 29 30 35 43 55 60 57 62 72 76 77 76 78 81 79 75 71 73 76 78 79 81 82 81 81 82 81 79 78 76 75 76 73 68 57 47 47 51 55 51 37 6 339 333 336 337 329 320 315 314 321 108 110 105 103 103 105 113 124 133 130 124 121 121 123 124 132 134 136 134 122 126 132 125 120 120
137 134 127 98 79 70 52 41 40 43 28 16 22 20 23 23 15 14 18 20 26 31 34 36 43 54 64 62 58 66 74 76 74 77 80 78 76 73 74 76 77 79 80 82 82 82 80 77 75 74 72 71 72 74 77 76 73 69 66 61 52 39 22 15 15 15 5 351 348 356 31 80 116 115 105 98 93 93 100 108 114 113 109 108 104 112 125 130 129 133 130 120 128 135 127 121 126
144 141 124 97 81 69 45 37 45 35 2 12 26 24 27 23 15 18 18 21 26 31 36 35 44 53 62 65 60 60 70 76 75 77 79 75 71 71 74 76 78 80 81 83 83 82 79 75 72 69 66 64 63 68 74 77 74 67 61 55 51 43 37 36 35 29 21 17 25 51 77 97 117 113 103 94 86 85 91 95 98 103 110 116 112 109 122 128 130 132 127 121 131 135 127 129 137
151 143 125 105 86 70 45 43 54 29 354 354 13 21 27 23 22 22 19 22 24 31 36 36 45 53 60 65 63 60 65 73 77 79 80 74 62 61 69 73 75 78 80 81 80 78 75 72 69 67 65 61 60 61 65 67 65 61 57 52 47 42 38 36 34 31 29 32 43 66 82 98 115 112 104 93 85 83 89 96 97 102 110 120 118 112 117 123 124 125 123 122 133 137 135 145 149
152 136 127 116 96 82 59 56 61 33 8 344 358 20 29 28 30 25 20 21 23 30 33 37 47 54 59 64 66 64 65 70 76 78 80 75 58 54 62 67 71 72 74 75 75 73 71 69 69 69 68 63 61 61 63 64 61 57 52 49 42 37 34 32 35 37 36 40 52 69 77 88 107 112 105 93 90 88 90 100 102 105 112 119 115 107 110 113 113 112 114 116 125 136 140 147 149
152 133 127 117 104 100 85 71 55 29 9 345 12 34 33 32 34 29 23 21 23 28 29 37 50 56 59 64 67 68 68 69 72 73 77 77 63 54 58 62 67 68 69 71 72 70 69 69 70 70 68 63 60 61 64 64 62 59 50 46 41 31 27 28 42 48 42 47 56 70 77 82 96 106 103 95 95 94 94 101 104 110 116 116 109 104 105 105 105 105 108 111 115 125 134 141 145
155 141 138 127 123 120 110 84 50 31 55 76 50 42 37 35 35 32 27 24 24 27 28 35 50 60 62 65 68 70 70 69 70 69 72 77 69 58 57 58 62 66 68 69 70 69 68 68 69 70 68 63 60 61 65 66 65 61 50 40 36 27 22 29 53 57 43 49 58 69 79 82 88 95 96 94 93 93 95 99 102 109 113 112 108 102 101 100 99 101 106 112 117 124 133 141 144
160 159 157 144 135 133 121 88 55 60 66 54 53 45 40 36 36 34 29 29 28 29 31 33 49 62 64 67 68 69 70 70 68 66 69 75 71 60 57 56 58 63 67 68 67 67 67 67 67 68 68 64 60 60 62 64 63 60 52 39 33 31 33 44 59 58 43 49 58 68 78 82 86 89 89 90 89 87 92 100 106 111 113 111 107 99 98 100 99 101 107 113 120 128 135 139 139
165 171 164 149 138 134 131 108 87 103 319 4 59 51 42 38 37 35 31 32 33 35 36 34 48 61 64 69 69 68 69 67 63 61 65 71 67 59 55 54 54 59 64 65 64 65 65 64 64 66 66 65 60 58 58 60 59 57 51 39 35 42 48 54 59 59 45 47 59 69 77 83 87 88 83 83 84 84 87 98 112 119 121 118 111 106 104 104 104 107 114 119 123 127 132 132 128
169 176 166 150 140 134 139 134 125 131 280 311 70 56 46 40 39 35 32 35 37 39 43 40 44 58 65 69 69 67 67 62 55 55 62 67 64 56 51 49 50 54 59 61 61 61 62 59 59 62 62 62 57 54 54 56 55 54 52 38 31 44 53 55 62 64 56 55 64 72 79 85 87 88 85 80 79 80 80 85 99 113 124 127 121 117 112 111 115 116 118 123 121 126 133 123 107
171 174 159 147 145 145 147 133 133 123 279 145 77 60 52 42 39 36 33 35 39 41 46 49 46 54 64 70 69 65 64 57 47 52 61 65 61 52 46 46 48 51 55 56 55 55 57 55 54 58 59 55 49 48 47 48 52 55 53 38 29 42 53 57 64 66 66 69 74 78 85 87 86 90 91 83 78 76 78 84 92 105 121 129 129 123 114 115 128 133 131 123 116 126 119 108 106
175 172 153 157 153 139 149 137 151 137 318 131 76 62 58 47 43 38 36 36 38 43 47 55 54 55 61 67 70 65 60 51 44 51 60 62 58 51 46 47 48 50 53 53 51 51 53 52 53 56 54 47 44 46 43 41 49 53 49 37 34 44 54 58 63 66 68 74 80 83 85 87 88 93 96 94 92 86 74 80 91 98 103 110 115 112 108 131 160 167 184 206 77 69 82 98 105
177 172 156 168 155 135 201 205 171 215 253 173 50 53 62 53 48 42 40 37 37 44 48 56 58 57 58 62 67 65 58 47 44 50 57 59 56 51 48 48 49 51 53 53 52 50 50 50 53 57 52 43 43 47 45 41 44 46 43 39 41 47 54 57 59 63 65 73 81 82 82 84 86 93 103 112 119 114 88 67 72 81 89 90 108 134 184 204 214 228 243 305 353 38 84 105 109
175 173 163 171 158 155 201 206 185 207 213 195 282 35 70 60 54 48 44 40 38 45 48 54 58 57 57 58 62 65 58 46 46 50 54 55 53 52 49 49 51 54 56 56 54 50 48 47 53 57 50 42 42 45 43 42 43 40 38 41 43 46 49 49 54 61 65 76 85 88 88 87 89 97 110 121 127 127 121 114 100 71 102 134 176 182 198 213 233 234 223 73 37 88 114 130 141
174 175 171 171 166 169 184 187 180 141 172 195 189 111 83 72 62 53 49 44 41 47 49 51 56 56 57 58 60 64 59 49 49 52 53 53 52 52 50 49 52 56 57 56 54 51 48 48 53 54 48 43 40 41 40 40 41 37 36 39 42 45 42 39 46 57 66 81 94 100 100 100 102 103 113 122 127 130 131 138 149 194 223 220 202 197 198 205 162 147 145 147 156 141 143 157 164
176 180 179 176 171 172 173 179 170 136 154 197 180 110 90 80 68 59 55 51 46 50 52 51 55 54 54 58 60 63 61 53 53 54 53 52 51 50 49 50 52 56 58 56 54 52 52 52 54 52 48 46 41 40 40 40 40 39 39 39 42 45 42 38 42 54 65 79 98 110 110 112 111 106 115 127 134 139 138 140 154 181 217 219 208 207 200 195 154 140 154 162 165 166 165 167 173
179 183 186 182 175 171 174 184 178 155 157 195 237 201 110 87 75 66 60 58 52 53 55 53 54 53 52 57 61 64 64 58 56 55 54 52 50 49 48 49 52 56 59 57 54 54 55 55 53 51 49 48 45 42 41 41 43 45 46 46 46 47 46 45 46 53 62 73 87 104 114 119 123 130 143 146 141 145 148 159 176 172 175 198 199 199 195 179 150 149 159 159 167 175 168 164 170
181 187 189 186 179 173 177 187 187 185 178 186 229 173 119 92 82 75 67 65 57 55 56 56 54 54 53 54 60 64 65 61 58 56 54 52 50 48 47 48 51 55 57 57 54 54 56 55 52 49 49 49 47 45 44 44 47 50 52 52 51 51 50 49 49 50 56 65 75 90 107 119 130 137 143 143 139 147 161 169 178 149 136 169 181 178 179 162 150 158 161 164 172 177 171 165 168
183 191 193 190 180 172 179 189 195 196 183 183 224 171 127 99 87 81 75 71 64 59 57 57 55 56 56 54 58 62 65 63 60 57 54 52 50 48 46 46 50 53 56 56 54 53 54 54 50 48 47 48 48 48 47 47 49 50 51 51 51 50 47 46 44 44 48 58 70 84 99 114 124 123 121 125 138 160 174 171 170 153 149 172 182 173 165 155 158 166 169 176 183 187 184 177 178
187 193 194 190 178 173 184 189 205 202 188 193 215 195 138 107 98 86 79 75 69 65 59 57 54 56 57 54 55 57 62 63 60 58 54 52 50 47 45 45 48 51 54 56 53 52 53 52 49 48 47 48 50 50 49 49 49 49 49 48 47 46 45 44 43 42 45 52 66 78 88 104 113 119 129 134 150 174 176 168 169 171 167 173 177 168 159 158 165 174 182 188 191 190 182 175 173
189 195 194 189 177 181 189 189 201 202 199 204 212 223 179 113 113 98 84 78 73 69 64 58 52 54 57 55 54 54 58 60 60 57 54 52 49 47 44 43 46 50 53 55 54 51 51 51 50 48 48 50 51 51 51 50 49 49 48 47 46 46 46 45 45 44 44 51 63 75 76 83 96 116 136 145 157 167 165 162 165 168 167 166 167 162 160 164 172 181 189 186 177 169 162 157 147
191 196 194 187 182 188 189 188 195 198 207 210 214 226 229 220 145 115 96 85 77 71 67 62 54 53 55 56 54 53 55 57 57 55 54 52 49 47 44 43 44 47 50 53 54 52 52 52 50 49 48 49 51 52 52 51 50 49 48 48 48 48 49 49 48 46 46 54 65 72 73 80 94 108 122 133 140 144 146 152 155 156 158 159 160 159 160 166 174 177 172 161 152 147 144 137 129
191 197 195 187 185 189 186 186 190 199 208 207 216 224 226 238 232 168 115 99 86 76 70 65 59 53 54 55 53 52 53 55 55 52 52 52 49 47 44 43 43 45 48 51 54 53 52 52 49 48 48 49 50 52 52 51 49 48 47 47 48 49 52 52 51 50 53 61 69 75 81 86 92 99 106 115 121 127 134 139 143 148 152 156 160 158 158 161 160 154 145 138 134 134 132 128 124
190 195 196 188 182 182 182 189 193 197 203 207 219 223 224 223 214 224 187 120 100 87 78 69 62 57 54 53 53 51 51 53 54 51 49 50 49 46 44 42 42 43 46 48 52 53 52 51 49 48 47 48 50 52 52 51 49 48 46 46 48 50 54 56 55 57 62 70 76 81 83 83 84 87 93 101 109 117 124 128 133 142 148 152 154 148 142 139 138 134 130 127 126 126 125 124 123
189 191 196 191 181 178 177 186 196 196 200 217 225 218 222 223 203 209 218 157 119 103 89 76 63 59 56 52 52 50 49 51 53 52 49 47 47 45 44 42 41 42 44 47 51 53 52 51 50 47 47 48 49 51 52 51 50 48 47 47 48 52 56 59 60 64 72 79 83 83 80 76 76 80 87 95 102 107 111 117 125 131 133 135 134 127 123 123 126 126 124 122 121 121 121 121 119
189 191 196 191 184 180 175 180 197 199 201 213 223 217 220 224 210 204 215 190 138 119 104 89 67 59 58 53 51 50 47 49 51 52 51 47 45 43 43 42 40 41 43 46 49 52 53 52 51 48 47 47 48 51 52 52 50 48 49 49 50 54 58 62 64 70 79 84 85 82 78 75 75 80 86 92 95 97 102 107 111 112 112 117 118 115 114 117 120 120 119 118 117 117 116 115 113
191 193 195 190 186 183 176 179 193 197 201 206 217 221 219 219 217 211 209 198 157 135 121 104 84 61 57 55 53 52 49 47 49 51 52 50 45 42 42 41 40 40 41 44 48 51 53 53 52 49 47 47 48 50 52 53 51 50 51 52 53 56 60 64 68 72 80 85 86 83 79 77 77 81 86 89 91 94 96 99 101 101 104 109 108 107 109 113 115 115 113 112 112 111 111 111 111
191 194 193 188 186 185 179 178 188 193 202 211 214 213 211 212 218 215 204 202 181 150 135 120 103 77 56 56 56 54 52 48 47 49 52 52 48 43 41 40 39 40 40 41 45 49 51 54 53 51 49 48 48 50 51 53 52 52 53 54 55 58 62 66 69 73 78 84 85 82 79 78 78 81 86 89 91 93 94 96 98 99 101 102 100 101 105 109 109 108 106 106 105 106 107 108 110
191 195 193 189 187 185 179 178 187 193 204 213 208 203 204 210 218 217 211 210 197 164 149 145 122 98 60 55 57 55 54 51 47 47 50 52 50 46 42 39 38 39 39 39 43 46 49 53 54 52 50 49 49 50 51 52 53 53 54 55 57 59 62 65 69 73 76 80 81 79 77 78 80 82 85 89 91 92 94 95 95 96 96 96 97 99 101 102 101 101 101 102 102 103 105 106 107
192 195 195 193 190 182 178 183 189 192 200 206 204 203 205 209 216 218 217 215 202 179 162 168 154 123 75 54 55 53 54 53 48 46 48 50 50 48 45 41 39 39 39 38 40 43 46 51 54 53 51 50 50 50 51 52 53 54 55 56 58 60 63 65 68 71 74 76 77 76 77 79 81 83 85 88 90 91 92 92 92 93 94 95 95 96 96 96 97 98 99 101 102 103 104 104 104
193 196 196 196 192 181 177 187 192 192 196 200 201 207 207 209 216 217 217 213 205 194 179 181 188 161 110 60 51 49 52 51 47 45 45 48 50 48 47 44 41 39 40 38 39 42 44 48 52 53 51 51 51 50 51 52 53 54 56 57 59 61 64 66 68 69 71 72 73 76 78 80 82 84 86 86 87 89 91 92 92 93 94 94 94 93 93 94 95 96 97 99 101 102 103 103 103
193 197 196 197 193 181 175 185 192 193 194 195 199 208 212 213 217 218 217 214 210 208 193 186 200 200 169 76 47 43 47 47 44 43 42 44 48 49 47 46 44 41 40 39 38 41 44 46 50 52 51 51 52 52 52 52 53 55 56 57 59 62 65 67 68 69 70 70 72 74 76 79 82 84 85 86 86 86 88 90 91 92 93 93 93 93 93 93 94 94 96 97 99 100 102 102 102
193 197 196 197 194 182 174 182 190 190 189 193 201 210 214 214 216 218 219 217 209 208 202 193 200 208 199 168 41 29 37 42 42 39 38 40 44 48 48 47 46 44 42 39 38 40 43 45 47 50 51 50 51 53 53 53 54 55 56 57 58 61 64 67 68 69 70 71 72 72 74 76 78 81 83 85 87 88 88 89 90 91 92 93 94 94 95 94 94 95 95 96 96 98 99 99 99
192 197 196 196 195 185 176 179 187 188 186 192 204 209 207 205 208 213 218 219 206 200 205 200 199 205 205 202 268 347 14 32 36 36 36 36 40 46 49 48 47 47 45 41 39 40 42 45 46 49 50 50 50 52 54 54 55 56 56 57 58 60 62 65 67 69 70 71 72 73 74 74 75 76 79 82 85 87 89 89 89 90 91 92 93 93 93 93 93 93 92 92 92 92 91 91 90
192 197 196 195 196 188 179 178 182 186 188 195 204 210 205 199 203 211 216 217 206 196 205 207 203 207 211 207 229 285 334 9 23 31 35 35 36 41 46 49 48 48 48 44 41 41 42 44 45 48 49 49 49 50 53 54 56 57 58 58 58 59 61 62 65 68 69 70 71 73 74 75 75 75 75 78 80 82 84 86 87 88 88 89 89 89 89 89 89 88 87 86 85 84 82 80 79
192 196 196 196 197 191 184 179 177 184 190 196 205 211 208 200 202 210 213 214 210 201 206 214 210 213 220 210 218 250 288 328 6 23 33 36 34 35 39 46 50 50 50 48 45 43 43 44 45 47 48 49 49 49 51 53 55 57 59 59 59 59 60 61 63 66 68 69 70 71 72 74 76 75 75 76 77 78 79 80 82 83 84 84 85 85 86 86 86 85 84 83 81 79 77 75 73
192 196 197 197 198 194 187 180 177 184 188 192 202 210 209 204 203 208 212 212 210 205 210 218 213 218 229 217 221 237 257 289 343 15 27 38 37 32 31 39 49 52 52 51 48 46 45 46 47 47 47 48 48 49 50 52 54 56 58 60 61 60 60 60 62 64 67 69 70 71 72 73 75 76 76 76 76 77 77 78 78 79 79 79 80 80 81 82 82 82 82 81 80 79 77 75 73
192 195 197 198 199 196 190 183 181 186 187 188 197 204 205 204 204 206 210 212 211 207 209 217 211 213 227 221 225 237 249 272 313 5 19 38 41 34 27 29 42 51 53 53 51 50 48 48 49 49 48 47 47 48 50 51 52 54 56 58 60 61 61 60 60 61 63 67 69 71 72 73 74 75 76 76 76 77 77 77 77 77 77 77 77 77 77 77 77 78 78 78 78 77 76 74 73
193 194 196 198 199 198 192 186 185 187 187 187 193 199 201 203 204 204 206 211 215 212 209 215 211 210 223 224 225 235 245 262 283 327 2 36 42 38 29 24 31 45 53 54 52 52 51 50 51 52 50 49 48 48 49 51 52 53 54 55 58 60 61 61 60 60 60 62 65 68 71 72 73 73 74 75 76 76 76 77 77 78 78 78 77 77 76 76 76 76 76 76 76 75 75 74 73
194 195 196 198 200 199 195 189 187 189 189 188 192 195 197 201 202 201 204 207 211 211 209 214 216 215 223 227 224 230 239 251 263 279 306 29 45 42 36 25 23 36 50 54 51 51 52 52 53 53 53 52 51 49 49 50 51 52 53 54 55 58 59 60 61 60 59 59 61 64 67 70 71 72 72 73 74 75 75 75 76 77 77 77 76 76 76 75 75 74 74 74 73 73 72 72 71
195 195 196 198 200 200 198 193 190 191 190 188 190 193 195 199 201 200 203 205 205 207 211 214 216 218 223 226 224 226 235 244 251 259 270 342 53 49 44 29 20 28 45 53 52 49 50 53 54 54 54 55 54 52 50 51 51 52 53 53 55 56 57 58 59 60 59 58 58 60 63 66 69 70 71 71 72 72 73 73 73 74 74 75 74 74 74 74 73 72 71 71 70 70 70 70 69
197 196 196 197 200 201 200 197 193 192 191 188 189 192 196 198 199 198 199 205 209 210 213 215 217 219 221 223 224 226 233 240 243 243 245 245 58 62 55 32 16 18 38 52 54 48 45 49 55 56 55 55 55 54 52 52 52 52 53 53 54 56 56 57 58 58 59 58 57 58 59 62 65 67 68 68 68 69 69 70 71 71 72 73 73 72 71 70 70 69 69 68 68 68 68 67 66
199 197 197 198 200 201 202 200 197 195 193 191 190 193 197 199 198 196 195 202 212 213 214 216 219 222 222 222 222 222 228 238 243 239 227 226 222 85 80 35 5 2 23 46 54 51 43 43 52 56 56 55 55 55 54 53 53 53 53 53 54 55 56 57 58 58 57 57 57 56 56 58 61 63 65 66 66 65 66 67 67 67 68 69 70 70 70 68 67 66 65 65 65 65 64 63 62
200 198 198 198 200 201 202 203 202 199 194 190 189 193 199 202 201 199 196 199 208 214 216 217 222 224 221 220 221 219 224 232 236 231 215 211 219 129 119 114 347 339 359 29 49 54 46 40 46 52 56 56 55 54 54 54 54 53 54 54 54 54 54 55 58 58 57 57 57 56 55 56 58 60 62 64 65 65 64 64 63 63 63 64 65 66 66 66 66 65 64 64 63 62 61 59 58
201 198 199 199 199 201 202 203 204 202 197 191 188 193 200 204 205 204 200 200 204 211 215 217 221 223 220 219 221 218 221 227 227 219 208 204 209 188 157 164 217 295 329 355 27 50 52 43 42 47 51 54 55 54 53 53 54 54 54 54 54 54 53 53 55 57 57 57 57 57 56 55 56 58 60 61 63 64 64 64 63 62 61 60 60 60 61 62 62 62 62 62 61 61 59 58 57
203 200 200 200 199 200 202 202 204 204 202 197 191 192 199 204 207 207 204 202 204 208 213 217 221 222 219 218 219 218 217 222 220 209 201 198 199 193 177 177 193 230 277 310 341 32 55 49 42 43 46 50 53 54 53 51 52 52 53 53 53 53 53 52 52 54 55 56 57 57 56 56 55 57 58 58 59 61 62 63 63 62 61 60 59 58 58 57 57 57 57 57 57 57 56 55 55
204 202 201 201 200 200 201 203 204 205 205 202 197 193 196 201 205 206 204 204 206 207 210 217 221 222 220 217 218 218 216 218 219 211 204 199 194 192 187 185 190 205 231 263 295 357 46 54 48 43 42 44 48 53 54 51 49 50 50 51 52 52 52 51 50 51 52 53 55 56 56 56 55 56 57 57 57 58 60 61 61 62 62 61 60 59 58 58 56 55 54 53 53 52 51 50 51
205 203 203 203 201 200 201 202 203 205 206 205 202 197 195 198 203 204 204 204 205 206 210 215 219 221 221 218 217 219 219 218 218 214 209 204 198 198 195 192 192 196 213 237 258 310 32 51 53 45 40 39 39 45 51 52 49 48 48 48 49 49 50 50 50 49 48 50 51 53 54 55 54 55 56 57 56 57 58 59 60 60 61 61 60 60 60 59 58 57 56 54 53 53 51 50 49
206 205 204 204 203 202 201 202 203 204 207 206 203 200 197 198 203 205 204 203 201 204 209 213 216 219 220 220 219 220 221 220 217 211 209 208 206 208 207 202 199 194 202 224 241 263 4 38 49 48 39 33 31 33 42 49 50 48 46 45 45 46 47 48 48 47 47 47 48 49 51 52 53 53 55 56 56 56 57 58 59 59 60 60 60 60 60 60 60 58 58 57 57 56 55 55 54
207 206 205 204 204 204 203 204 203 203 205 206 204 202 201 201 203 205 206 204 201 203 208 210 214 219 220 219 220 220 222 223 218 211 210 211 210 212 216 214 211 204 200 211 231 249 273 2 42 48 36 25 21 24 30 38 46 48 46 43 43 44 45 45 46 46 46 45 46 46 47 48 50 51 52 53 55 56 56 56 58 58 59 60 60 60 59 59 60 59 58 58 57 57 57 57 56
207 206 206 205 205 207 207 206 204 203 204 206 204 204 204 203 203 206 208 205 202 203 207 208 213 220 222 221 220 221 223 225 222 215 213 215 213 212 216 219 221 221 215 213 222 238 248 253 293 52 30 10 5 14 21 25 33 44 49 50 48 47 46 46 45 45 44 45 46 46 46 45 46 47 48 49 51 52 54 55 55 56 56 57 58 58 58 58 58 58 58 58 57 56 56 55 54
208 207 206 206 207 208 209 208 206 204 204 206 206 206 206 205 204 206 208 205 201 203 208 209 213 219 223 223 221 221 222 224 223 217 214 216 216 214 214 217 222 225 223 219 217 225 239 241 232 226 251 294 337 358 13 14 13 22 43 57 63 61 54 47 46 45 43 42 43 45 46 45 45 44 43 45 46 47 49 51 51 53 53 54 55 56 56 56 56 57 56 57 56 56 55 54 53
209 208 208 208 208 209 210 209 208 206 205 205 206 208 209 206 205 207 209 206 202 203 208 211 214 217 221 223 223 222 222 222 220 216 214 216 216 216 216 217 220 225 226 222 218 218 230 239 238 237 255 272 295 317 333 345 346 349 15 43 63 74 70 57 48 45 44 41 40 40 42 43 45 45 42 42 42 42 43 45 46 48 49 50 51 52 54 54 54 54 54 54 54 54 54 54 53
209 210 210 209 209 209 210 210 209 208 208 206 206 209 210 207 206 207 210 210 206 204 206 210 214 214 214 219 223 222 221 221 219 215 214 215 216 217 219 220 221 225 228 226 222 219 224 234 239 241 250 265 273 275 281 290 300 314 337 360 24 60 71 67 55 46 44 43 41 37 36 36 39 43 44 41 40 39 39 40 40 41 43 45 46 48 50 52 52 52 52 52 52 52 52 52 52
210 211 211 211 210 210 210 210 210 209 209 208 207 208 210 209 208 208 209 212 211 207 204 205 209 208 206 211 220 221 221 220 219 217 215 215 217 218 220 223 224 228 233 233 228 223 222 228 235 237 242 252 259 260 257 256 262 280 299 312 328 2 42 61 60 51 44 43 43 41 36 33 31 35 40 40 39 39 38 37 37 36 37 39 41 43 44 47 49 49 50 50 50 51 50 50 50
211 211 212 212 212 212 212 211 211 210 210 210 208 208 210 212 211 209 208 210 212 209 204 202 205 205 204 209 215 218 220 220 219 219 218 216 217 219 220 222 225 230 235 236 232 228 226 229 234 237 239 244 250 254 258 261 261 264 283 307 321 325 336 24 57 58 49 41 40 41 38 34 29 29 32 34 35 37 37 36 35 34 34 34 35 37 39 40 43 45 47 48 48 49 49 48 48
211 211 211 212 212 213 213 213 212 212 211 211 210 209 211 214 214 212 209 209 210 209 204 202 205 207 208 214 219 219 220 221 219 220 220 219 218 220 221 221 224 229 233 236 236 233 231 233 237 240 239 242 246 252 260 269 275 284 299 310 318 317 310 311 352 57 62 51 40 38 37 33 29 27 29 30 30 31 34 35 35 33 33 32 31 33 34 34 36 38 42 45 46 47 48 47 47